Location: �terpigny
(49.8910°N, 2.9249°E)
Time: 12:59:26
(UTC+00:00)

ATLAS 5 CENTAUR R/B - Pass Details

Date: 24 October 2021
Orbit: 497 x 1159 km, 63.4° (Epoch: 25 November)

Event Time Altitude Azimuth Distance (km) Brightness Sun altitude
Rises 19:34:33 0° 281° (W) 2,744 6.1 -28.7°
Reaches altitude 10° 19:37:12 10° 301° (WNW) 1,934 5.0 -29.1°
Maximum altitude 19:40:20 19° 347° (NNW) 1,543 3.8 -29.5°
Enters shadow 19:40:57 19° 357° (N) 1,584 3.8 -29.6°
